Location: Amarillo Post Office Jordan Station
(35.1907°N, 101.9342°W)
Time: 13:14:00
(UTC+00:00)

CZ-2C R/B - Pass Details

Date: 24 January 2021
Orbit: 785 x 870 km, 98.2° (Epoch: 03 March)

Event Time Altitude Azimuth Distance (km) Brightness Sun altitude
Rises 12:33:30 0° 144° (SE) 3,274 6.6 -16.1°
Reaches altitude 10° 12:35:57 10° 135° (SE) 2,356 5.9 -15.6°
Maximum altitude 12:40:40 36° 71° (ENE) 1,255 4.1 -14.7°
Drops below altitude 10° 12:45:29 10° 6° (N) 2,411 5.0 -13.7°
Sets 12:48:00 0° 358° (N) 3,360 5.7 -13.2°
